When you browse on this site, cookies collect data to enhance your experience and personalize the content and advertising you see.
Visit our Privacy Policy to learn more. By continuing to use the site, you agree to this use of cookies and data.
  • In Deutschland
  • Länderverzeichnis
  • Für 7 Tage
  • Wassertemperatur
  • Wetterkarte
  • Widgets
  • user-avatar
    Anmelden

    Stündliche Wetter Canberra

    Heute, 18 Oktober, Freitag

    Zeit Temperatur Niederschläge Wind Luftdruck Luftfeuchtigkeit
    00:00 +4°C° 0 mm 3 m/S 707 mmHg 78%
    01:00 +4°C° 0 mm 3 m/S 707 mmHg 82%
    02:00 +3°C° 0 mm 3 m/S 707 mmHg 86%
    03:00 +3°C° 0 mm 2 m/S 707 mmHg 90%
    04:00 +3°C° 0 mm 2 m/S 707 mmHg 96%
    05:00 +5°C° 0 mm 2 m/S 708 mmHg 91%
    06:00 +6°C° 0 mm 2 m/S 709 mmHg 86%
    07:00 +7°C° 0 mm 2 m/S 709 mmHg 81%
    08:00 +10°C° 0 mm 3 m/S 709 mmHg 68%
    09:00 +12°C° 0 mm 4 m/S 709 mmHg 56%
    10:00 +15°C° 0 mm 4 m/S 710 mmHg 41%
    11:00 +16°C° 0 mm 5 m/S 709 mmHg 39%
    12:00 +17°C° 0 mm 5 m/S 709 mmHg 36%
    13:00 +19°C° 0 mm 6 m/S 708 mmHg 34%
    14:00 +19°C° 0 mm 6 m/S 708 mmHg 35%
    15:00 +17°C° 0 mm 6 m/S 707 mmHg 37%
    16:00 +16°C° 0 mm 6 m/S 707 mmHg 38%
    17:00 +14°C° 0 mm 5 m/S 707 mmHg 45%
    18:00 +12°C° 0 mm 4 m/S 707 mmHg 51%
    19:00 +10°C° 0 mm 2 m/S 707 mmHg 57%
    20:00 +9°C° 0 mm 2 m/S 707 mmHg 59%
    21:00 +8°C° 0 mm 2 m/S 707 mmHg 60%
    22:00 +7°C° 0 mm 2 m/S 707 mmHg 62%
    23:00 +7°C° 0 mm 2 m/S 706 mmHg 61%

    Morgen, 19 Oktober, Samstag

    Zeit Temperatur Niederschläge Wind Luftdruck Luftfeuchtigkeit
    00:00 +6°C° 0 mm 2 m/S 706 mmHg 61%
    01:00 +6°C° 0 mm 2 m/S 706 mmHg 60%
    02:00 +6°C° 0 mm 2 m/S 706 mmHg 61%
    03:00 +6°C° 0 mm 2 m/S 706 mmHg 61%
    04:00 +5°C° 0 mm 3 m/S 706 mmHg 62%
    05:00 +6°C° 0 mm 4 m/S 706 mmHg 62%
    06:00 +8°C° 0 mm 5 m/S 706 mmHg 62%
    07:00 +10°C° 0 mm 6 m/S 707 mmHg 62%
    08:00 +11°C° 0 mm 7 m/S 707 mmHg 56%
    09:00 +13°C° 0 mm 8 m/S 707 mmHg 50%
    10:00 +16°C° 0 mm 9 m/S 707 mmHg 43%
    11:00 +15°C° 0 mm 9 m/S 707 mmHg 43%
    12:00 +15°C° 0 mm 9 m/S 707 mmHg 43%
    13:00 +15°C° 0 mm 9 m/S 707 mmHg 43%
    14:00 +13°C° 0 mm 8 m/S 707 mmHg 44%
    15:00 +12°C° 0 mm 7 m/S 707 mmHg 44%
    16:00 +11°C° 0 mm 7 m/S 707 mmHg 45%
    17:00 +9°C° 0 mm 5 m/S 708 mmHg 53%
    18:00 +7°C° 0 mm 4 m/S 709 mmHg 61%
    19:00 +5°C° 0 mm 3 m/S 709 mmHg 68%
    20:00 +5°C° 0 mm 2 m/S 710 mmHg 74%
    21:00 +4°C° 0 mm 2 m/S 710 mmHg 80%
    22:00 +3°C° 0 mm 2 m/S 710 mmHg 86%
    23:00 +4°C° 0 mm 1 m/S 710 mmHg 88%

    übermorgen, 20 Oktober, Sonntag

    Zeit Temperatur Niederschläge Wind Luftdruck Luftfeuchtigkeit
    00:00 +3°C° 0 mm 1 m/S 710 mmHg 90%
    01:00 +2°C° 0 mm 1 m/S 710 mmHg 92%
    02:00 +1°C° 0 mm 0 m/S 710 mmHg 93%
    03:00 +1°C° 0 mm 0 m/S 710 mmHg 93%
    04:00 0°C° 0 mm 0 m/S 710 mmHg 93%
    05:00 +2°C° 0 mm 0 m/S 711 mmHg 86%
    06:00 +4°C° 0 mm 0 m/S 712 mmHg 79%
    07:00 +6°C° 0 mm 0 m/S 712 mmHg 72%
    08:00 +9°C° 0 mm 1 m/S 712 mmHg 62%
    09:00 +12°C° 0 mm 1 m/S 712 mmHg 51%
    10:00 +15°C° 0 mm 2 m/S 713 mmHg 41%
    11:00 +16°C° 0 mm 2 m/S 712 mmHg 39%
    12:00 +17°C° 0 mm 2 m/S 712 mmHg 37%
    13:00 +19°C° 0 mm 2 m/S 712 mmHg 35%
    14:00 +18°C° 0 mm 2 m/S 712 mmHg 38%
    15:00 +18°C° 0 mm 3 m/S 712 mmHg 41%
    16:00 +18°C° 0 mm 3 m/S 712 mmHg 45%
    17:00 +14°C° 0 mm 3 m/S 712 mmHg 57%
    18:00 +13°C° 0 mm 2 m/S 713 mmHg 69%
    19:00 +10°C° 0 mm 1 m/S 713 mmHg 81%
    20:00 +8°C° 0 mm 2 m/S 714 mmHg 83%
    21:00 +7°C° 0 mm 2 m/S 714 mmHg 85%
    22:00 +6°C° 0 mm 2 m/S 715 mmHg 87%
    23:00 +5°C° 0 mm 2 m/S 715 mmHg 89%

    21 Oktober, Montag

    Zeit Temperatur Niederschläge Wind Luftdruck Luftfeuchtigkeit
    00:00 +6°C° 0 mm 1 m/S 714 mmHg 90%
    01:00 +5°C° 0 mm 1 m/S 714 mmHg 92%
    02:00 +5°C° 0 mm 1 m/S 714 mmHg 92%
    03:00 +5°C° 0 mm 1 m/S 714 mmHg 92%
    04:00 +5°C° 0 mm 1 m/S 714 mmHg 92%
    05:00 +7°C° 0 mm 1 m/S 715 mmHg 85%
    06:00 +8°C° 0 mm 1 m/S 715 mmHg 78%
    07:00 +10°C° 0 mm 1 m/S 716 mmHg 71%
    08:00 +13°C° 0 mm 1 m/S 716 mmHg 63%
    09:00 +16°C° 0 mm 1 m/S 716 mmHg 54%
    10:00 +20°C° 0 mm 1 m/S 716 mmHg 45%
    11:00 +21°C° 0 mm 1 m/S 716 mmHg 43%
    12:00 +22°C° 0 mm 1 m/S 716 mmHg 41%
    13:00 +23°C° 0 mm 2 m/S 715 mmHg 39%
    14:00 +21°C° 0 mm 2 m/S 715 mmHg 41%
    15:00 +21°C° 0 mm 2 m/S 715 mmHg 44%
    16:00 +21°C° 0 mm 2 m/S 714 mmHg 46%
    17:00 +18°C° 0 mm 2 m/S 715 mmHg 58%
    18:00 +15°C° 0 mm 1 m/S 715 mmHg 70%
    19:00 +13°C° 0 mm 1 m/S 715 mmHg 82%
    20:00 +11°C° 0 mm 1 m/S 715 mmHg 86%
    21:00 +10°C° 0 mm 1 m/S 715 mmHg 90%
    22:00 +9°C° 0 mm 1 m/S 715 mmHg 94%
    23:00 +9°C° 0 mm 1 m/S 715 mmHg 94%

    22 Oktober, Dienstag

    Zeit Temperatur Niederschläge Wind Luftdruck Luftfeuchtigkeit
    00:00 +9°C° 0 mm 1 m/S 715 mmHg 94%
    01:00 +8°C° 0 mm 1 m/S 715 mmHg 94%
    02:00 +8°C° 0 mm 1 m/S 714 mmHg 94%
    03:00 +8°C° 0 mm 1 m/S 714 mmHg 94%
    04:00 +8°C° 0 mm 1 m/S 714 mmHg 94%
    05:00 +9°C° 0 mm 0 m/S 715 mmHg 89%
    06:00 +10°C° 0 mm 0 m/S 715 mmHg 84%
    07:00 +12°C° 0 mm 0 m/S 715 mmHg 79%
    08:00 +16°C° 0 mm 1 m/S 715 mmHg 68%
    09:00 +20°C° 0 mm 1 m/S 716 mmHg 57%
    10:00 +23°C° 0 mm 2 m/S 716 mmHg 46%
    11:00 +23°C° 0 mm 2 m/S 715 mmHg 42%
    12:00 +24°C° 0 mm 3 m/S 715 mmHg 39%
    13:00 +25°C° 0 mm 3 m/S 715 mmHg 36%
    14:00 +25°C° 0 mm 3 m/S 714 mmHg 38%
    15:00 +24°C° 0 mm 3 m/S 714 mmHg 41%
    16:00 +24°C° 0 mm 3 m/S 713 mmHg 43%
    17:00 +20°C° 0 mm 3 m/S 714 mmHg 52%
    18:00 +18°C° 0 mm 2 m/S 714 mmHg 62%
    19:00 +15°C° 0 mm 1 m/S 714 mmHg 71%
    20:00 +14°C° 0 mm 1 m/S 714 mmHg 77%
    21:00 +13°C° 0 mm 1 m/S 714 mmHg 83%
    22:00 +12°C° 0 mm 1 m/S 714 mmHg 89%
    23:00 +11°C° 0 mm 1 m/S 714 mmHg 90%

    23 Oktober, Mittwoch

    Zeit Temperatur Niederschläge Wind Luftdruck Luftfeuchtigkeit
    00:00 +11°C° 0 mm 1 m/S 713 mmHg 91%
    01:00 +11°C° 0 mm 1 m/S 713 mmHg 93%
    02:00 +10°C° 0 mm 1 m/S 713 mmHg 93%
    03:00 +10°C° 0 mm 1 m/S 713 mmHg 93%
    04:00 +10°C° 0 mm 1 m/S 713 mmHg 92%
    05:00 +10°C° 0 mm 0 m/S 713 mmHg 87%
    06:00 +12°C° 0 mm 0 m/S 714 mmHg 82%
    07:00 +14°C° 0 mm 0 m/S 714 mmHg 76%
    08:00 +19°C° 0 mm 1 m/S 714 mmHg 64%
    09:00 +21°C° 0 mm 2 m/S 714 mmHg 52%
    10:00 +24°C° 0 mm 3 m/S 714 mmHg 40%
    11:00 +25°C° 0 mm 3 m/S 714 mmHg 37%
    12:00 +26°C° 0 mm 4 m/S 713 mmHg 35%
    13:00 +27°C° 0 mm 4 m/S 713 mmHg 32%
    14:00 +26°C° 0 mm 4 m/S 713 mmHg 34%
    15:00 +26°C° 0 mm 4 m/S 712 mmHg 35%
    16:00 +26°C° 0 mm 4 m/S 712 mmHg 37%
    17:00 +22°C° 0 mm 3 m/S 712 mmHg 44%
    18:00 +19°C° 0 mm 2 m/S 711 mmHg 51%
    19:00 +18°C° 0 mm 1 m/S 711 mmHg 57%
    20:00 +16°C° 0 mm 1 m/S 711 mmHg 60%
    21:00 +15°C° 0 mm 1 m/S 712 mmHg 62%
    22:00 +13°C° 0 mm 0 m/S 712 mmHg 64%
    23:00 +12°C° 0 mm 0 m/S 711 mmHg 65%
    Mehr zeigen